Location: McFarlands Corners
(41.4117°N, 81.3382°W)
Time: 03:50:17
(UTC+00:00)

Transit 4A - Pass Details

Date: 18 February 2026
Orbit: 864 x 977 km, 66.8° (Epoch: 7 March)

Event Time Altitude Azimuth Distance (km) Brightness Sun altitude
Rises 07:19:03 0° 156° (SSE) 3,438 - -53.0°
Reaches altitude 10° 07:22:44 10° 132° (SE) 2,520 - -52.6°
Maximum altitude 07:25:38 14° 102° (ESE) 2,251 - -52.2°
Drops below altitude 10° 07:28:34 10° 72° (ENE) 2,558 - -51.8°
Exits shadow 07:30:08 - 60° (ENE) 2,907 11.0 -51.6°
Sets 07:32:20 0° 49° (NE) 3,528 11.5 -51.3°
